| time (UTC) | temp F | wind direction | speed MPH | gust MPH | rain 1hr in | rain 24hr in | rain mn in | humidity % | barometer mb |
| 20260904040246 | 78 | 163 | 0.0 | 0.0 | 0.00 | 0.08 | 0.07 | 100 | 1016.3 |
| 20260904040002 | 78 | 163 | 0.0 | 0.0 | 0.00 | 0.08 | 0.07 | 100 | 1016.3 |
| 20260904035746 | 78 | 163 | 0.0 | 0.0 | 0.00 | 0.08 | 0.07 | 100 | 1016.3 |
| 20260904035247 | 78 | 163 | 0.0 | 0.0 | 0.00 | 0.08 | 0.07 | 100 | 1016.3 |
| 20260904035005 | 78 | 163 | 0.0 | 0.0 | 0.00 | 0.08 | 0.07 | 100 | 1016.3 |
| 20260904034747 | 78 | 163 | 0.0 | 0.0 | 0.00 | 0.08 | 0.07 | 100 | 1016.3 |
| 20260904034555 | 78 | 163 | 0.0 | 0.0 | 0.00 | 0.08 | 0.07 | 100 | 1016.4 |
| 20260904034247 | 78 | 163 | 0.0 | 0.0 | 0.00 | 0.08 | 0.07 | 100 | 1016.4 |
| 20260904033747 | 78 | 163 | 0.0 | 0.0 | 0.00 | 0.08 | 0.07 | 100 | 1016.4 |
| 20260904033247 | 78 | 163 | 0.0 | 0.0 | 0.00 | 0.08 | 0.07 | 100 | 1016.4 |
| 20260904033002 | 78 | 163 | 0.0 | 0.0 | 0.00 | 0.08 | 0.07 | 100 | 1016.4 |
| 20260904032747 | 78 | 163 | 0.0 | 0.0 | 0.00 | 0.08 | 0.07 | 100 | 1016.4 |
| 20260904032247 | 78 | 163 | 0.0 | 0.0 | 0.00 | 0.08 | 0.07 | 100 | 1016.3 |
| 20260904032012 | 78 | 163 | 0.0 | 0.0 | 0.00 | 0.08 | 0.07 | 100 | 1016.3 |
| 20260904031747 | 78 | 163 | 0.0 | 0.0 | 0.00 | 0.08 | 0.07 | 100 | 1016.3 |
| 20260904031456 | 78 | 163 | 0.0 | 0.0 | 0.00 | 0.08 | 0.07 | 100 | 1016.3 |
| 20260904031247 | 78 | 163 | 0.0 | 0.0 | 0.00 | 0.08 | 0.07 | 100 | 1016.3 |
| 20260904030747 | 78 | 163 | 0.0 | 0.0 | 0.00 | 0.08 | 0.07 | 100 | 1016.2 |
| 20260904030247 | 78 | 163 | 0.0 | 0.0 | 0.00 | 0.11 | 0.07 | 100 | 1016.3 |
| 20260904025747 | 78 | 163 | 0.0 | 0.0 | 0.00 | 0.11 | 0.07 | 100 | 1016.2 |
| 20260904025425 | 78 | 163 | 0.0 | 2.0 | 0.00 | 0.11 | 0.07 | 100 | 1016.1 |
| 20260904025247 | 78 | 163 | 0.0 | 2.0 | 0.00 | 0.11 | 0.07 | 100 | 1016.1 |
| 20260904025034 | 78 | 163 | 0.0 | 3.0 | 0.00 | 0.11 | 0.07 | 100 | 1016.0 |
| 20260904024747 | 78 | 163 | 0.0 | 3.0 | 0.00 | 0.11 | 0.07 | 100 | 1016.0 |
| 20260904024247 | 78 | 118 | 0.0 | 3.0 | 0.00 | 0.11 | 0.07 | 100 | 1016.0 |
| 20260904023747 | 78 | 150 | 2.0 | 4.0 | 0.00 | 0.11 | 0.07 | 100 | 1016.0 |
| 20260904023247 | 78 | 177 | 0.0 | 0.0 | 0.00 | 0.11 | 0.07 | 100 | 1016.0 |
| 20260904022747 | 78 | 177 | 0.0 | 0.0 | 0.00 | 0.11 | 0.07 | 100 | 1016.0 |
| 20260904022247 | 78 | 177 | 0.0 | 0.0 | 0.00 | 0.11 | 0.07 | 100 | 1016.1 |
| 20260904021747 | 78 | 177 | 0.0 | 3.0 | 0.00 | 0.11 | 0.07 | 100 | 1016.1 |
| 20260904021247 | 78 | 182 | 0.0 | 4.0 | 0.00 | 0.11 | 0.07 | 100 | 1016.3 |
| 20260904021052 | 78 | 150 | 2.0 | 4.0 | 0.00 | 0.11 | 0.07 | 100 | 1016.4 |
| 20260904020747 | 78 | 150 | 2.0 | 4.0 | 0.00 | 0.11 | 0.07 | 100 | 1016.4 |
| 20260904020247 | 78 | 171 | 0.0 | 6.0 | 0.00 | 0.12 | 0.07 | 100 | 1016.4 |
| 20260904015747 | 78 | 102 | 4.0 | 9.0 | 0.00 | 0.12 | 0.07 | 100 | 1016.3 |
| 20260904015612 | 78 | 126 | 2.0 | 8.0 | 0.00 | 0.12 | 0.07 | 100 | 1016.2 |
| 20260904015247 | 78 | 126 | 2.0 | 8.0 | 0.00 | 0.12 | 0.07 | 100 | 1016.2 |
| 20260904014958 | 78 | 150 | 4.0 | 9.0 | 0.00 | 0.12 | 0.07 | 100 | 1016.3 |
| 20260904014747 | 78 | 150 | 4.0 | 9.0 | 0.00 | 0.12 | 0.07 | 100 | 1016.3 |
| 20260904014504 | 79 | 123 | 0.0 | 6.0 | 0.00 | 0.12 | 0.07 | 100 | 1016.3 |
| 20260904014247 | 79 | 123 | 0.0 | 6.0 | 0.00 | 0.12 | 0.07 | 100 | 1016.3 |
| 20260904013747 | 79 | 133 | 3.0 | 8.0 | 0.00 | 0.12 | 0.07 | 100 | 1016.3 |
| 20260904013505 | 79 | 113 | 3.0 | 8.0 | 0.00 | 0.12 | 0.07 | 100 | 1016.2 |
| 20260904013247 | 79 | 113 | 3.0 | 8.0 | 0.00 | 0.12 | 0.07 | 100 | 1016.2 |
| 20260904013031 | 79 | 98 | 5.0 | 7.0 | 0.00 | 0.12 | 0.07 | 100 | 1016.1 |
| 20260904012747 | 79 | 98 | 5.0 | 7.0 | 0.00 | 0.12 | 0.07 | 100 | 1016.1 |
| 20260904012247 | 79 | 106 | 6.0 | 6.0 | 0.00 | 0.12 | 0.07 | 100 | 1016.2 |
| 20260904012128 | 79 | 80 | 3.0 | 5.0 | 0.00 | 0.12 | 0.07 | 100 | 1016.2 |
| 20260904011747 | 79 | 80 | 3.0 | 5.0 | 0.00 | 0.12 | 0.07 | 100 | 1016.2 |
| 20260904011247 | 79 | 129 | 2.0 | 7.0 | 0.00 | 0.12 | 0.07 | 100 | 1016.1 |
| 20260904010747 | 79 | 92 | 3.0 | 5.0 | 0.00 | 0.12 | 0.07 | 100 | 1016.2 |
| 20260904010247 | 80 | 136 | 5.0 | 7.0 | 0.00 | 0.12 | 0.07 | 100 | 1016.1 |
| 20260904005747 | 79 | 126 | 3.0 | 6.0 | 0.00 | 0.12 | 0.07 | 100 | 1016.0 |
| 20260904005247 | 80 | 95 | 3.0 | 3.0 | 0.00 | 0.12 | 0.07 | 100 | 1015.9 |
| 20260904005013 | 80 | 59 | 0.0 | 0.0 | 0.00 | 0.12 | 0.07 | 100 | 1015.8 |
| 20260904004747 | 80 | 59 | 0.0 | 0.0 | 0.00 | 0.12 | 0.07 | 100 | 1015.8 |
| 20260904004247 | 80 | 59 | 0.0 | 0.0 | 0.00 | 0.12 | 0.07 | 100 | 1015.8 |
| 20260904003747 | 80 | 59 | 0.0 | 3.0 | 0.00 | 0.12 | 0.07 | 100 | 1015.6 |
| 20260904003247 | 80 | 53 | 0.0 | 4.0 | 0.00 | 0.12 | 0.07 | 100 | 1015.4 |
| 20260904002820 | 80 | 108 | 1.0 | 5.0 | 0.00 | 0.12 | 0.07 | 100 | 1015.5 |
| 20260904002747 | 80 | 108 | 1.0 | 5.0 | 0.00 | 0.12 | 0.07 | 100 | 1015.5 |
| 20260904002247 | 80 | 99 | 3.0 | 6.0 | 0.00 | 0.12 | 0.07 | 100 | 1015.6 |
| 20260904002053 | 80 | 70 | 2.0 | 5.0 | 0.00 | 0.12 | 0.07 | 100 | 1015.5 |
| 20260904001747 | 80 | 70 | 2.0 | 5.0 | 0.00 | 0.12 | 0.07 | 100 | 1015.5 |
| 20260904001531 | 80 | 75 | 2.0 | 4.0 | 0.00 | 0.12 | 0.07 | 100 | 1015.5 |
| 20260904001247 | 80 | 75 | 2.0 | 4.0 | 0.00 | 0.12 | 0.07 | 100 | 1015.5 |
| 20260904000747 | 80 | 80 | 4.0 | 4.0 | 0.00 | 0.12 | 0.07 | 100 | 1015.5 |
| 20260904000422 | 80 | 75 | 2.0 | 3.0 | 0.00 | 0.13 | 0.07 | 100 | 1015.4 |
| 20260904000248 | 80 | 75 | 2.0 | 3.0 | 0.00 | 0.13 | 0.07 | 100 | 1015.4 |
| 20260903235747 | 80 | 67 | 2.0 | 4.0 | 0.00 | 0.13 | 0.07 | 100 | 1015.5 |
| 20260903235248 | 80 | 102 | 2.0 | 3.0 | 0.00 | 0.13 | 0.07 | 100 | 1015.4 |
| 20260903234748 | 80 | 108 | 1.0 | 3.0 | 0.00 | 0.13 | 0.07 | 100 | 1015.5 |
| 20260903234248 | 81 | 153 | 1.0 | 1.0 | 0.00 | 0.13 | 0.07 | 100 | 1015.4 |
| 20260903233748 | 81 | 147 | 0.0 | 1.0 | 0.00 | 0.13 | 0.07 | 100 | 1015.4 |
| 20260903233248 | 81 | 189 | 0.0 | 4.0 | 0.00 | 0.13 | 0.07 | 100 | 1015.4 |
| 20260903232748 | 81 | 168 | 3.0 | 4.0 | 0.00 | 0.13 | 0.07 | 100 | 1015.3 |
| 20260903232248 | 80 | 140 | 1.0 | 4.0 | 0.00 | 0.13 | 0.07 | 100 | 1015.3 |
| 20260903232058 | 81 | 170 | 2.0 | 8.0 | 0.00 | 0.13 | 0.07 | 100 | 1015.3 |
| 20260903231748 | 81 | 170 | 2.0 | 8.0 | 0.00 | 0.13 | 0.07 | 100 | 1015.3 |
| 20260903231248 | 81 | 243 | 5.0 | 7.0 | 0.00 | 0.13 | 0.07 | 100 | 1015.5 |
| 20260903231034 | 81 | 236 | 4.0 | 6.0 | 0.00 | 0.13 | 0.07 | 100 | 1015.5 |
| 20260903230748 | 81 | 236 | 4.0 | 6.0 | 0.00 | 0.13 | 0.07 | 100 | 1015.5 |
| 20260903230248 | 82 | 168 | 0.0 | 0.0 | 0.00 | 0.13 | 0.07 | 100 | 1015.3 |
| 20260903230020 | 82 | 168 | 0.0 | 0.0 | 0.00 | 0.14 | 0.07 | 100 | 1015.4 |
| 20260903225748 | 82 | 168 | 0.0 | 0.0 | 0.00 | 0.14 | 0.07 | 100 | 1015.4 |
| 20260903225248 | 82 | 175 | 0.0 | 3.0 | 0.00 | 0.14 | 0.07 | 100 | 1015.4 |
| 20260903224748 | 82 | 154 | 0.0 | 0.0 | 0.00 | 0.14 | 0.07 | 100 | 1015.4 |
| 20260903224248 | 82 | 154 | 0.0 | 2.0 | 0.00 | 0.14 | 0.07 | 100 | 1015.2 |
| 20260903223748 | 82 | 195 | 2.0 | 2.0 | 0.00 | 0.14 | 0.07 | 100 | 1015.2 |
| 20260903223527 | 82 | 168 | 1.0 | 3.0 | 0.00 | 0.14 | 0.07 | 100 | 1015.1 |
| 20260903223248 | 82 | 168 | 1.0 | 3.0 | 0.00 | 0.14 | 0.07 | 100 | 1015.1 |
| 20260903222955 | 83 | 206 | 3.0 | 4.0 | 0.00 | 0.14 | 0.07 | 100 | 1015.1 |
| 20260903222748 | 83 | 206 | 3.0 | 4.0 | 0.00 | 0.14 | 0.07 | 100 | 1015.1 |
| 20260903222248 | 82 | 225 | 4.0 | 6.0 | 0.00 | 0.14 | 0.07 | 100 | 1014.9 |
| 20260903221748 | 83 | 213 | 3.0 | 5.0 | 0.00 | 0.14 | 0.07 | 100 | 1014.9 |
| 20260903221506 | 83 | 241 | 2.0 | 7.0 | 0.00 | 0.14 | 0.07 | 100 | 1014.7 |
| 20260903221248 | 83 | 241 | 2.0 | 7.0 | 0.00 | 0.14 | 0.07 | 100 | 1014.7 |
| 20260903220748 | 83 | 161 | 4.0 | 4.0 | 0.00 | 0.14 | 0.07 | 100 | 1014.6 |
| 20260903220248 | 84 | 237 | 1.0 | 3.0 | 0.00 | 0.14 | 0.07 | 100 | 1014.4 |
| 20260903215748 | 83 | 181 | 2.0 | 3.0 | 0.00 | 0.14 | 0.07 | 100 | 1014.5 |
| 20260903215248 | 84 | 108 | 0.0 | 2.0 | 0.00 | 0.14 | 0.07 | 100 | 1014.4 |
| 20260903214948 | 83 | 88 | 0.0 | 4.0 | 0.00 | 0.14 | 0.07 | 100 | 1014.4 |
| 20260903214748 | 83 | 88 | 0.0 | 4.0 | 0.00 | 0.14 | 0.07 | 100 | 1014.4 |
| 20260903214533 | 84 | 137 | 2.0 | 3.0 | 0.00 | 0.14 | 0.07 | 100 | 1014.4 |
| 20260903214248 | 84 | 137 | 2.0 | 3.0 | 0.00 | 0.14 | 0.07 | 100 | 1014.4 |
| 20260903213748 | 83 | 122 | 2.0 | 3.0 | 0.00 | 0.14 | 0.07 | 100 | 1014.3 |
| 20260903213539 | 84 | 163 | 3.0 | 3.0 | 0.00 | 0.14 | 0.07 | 100 | 1014.2 |
| 20260903213248 | 84 | 163 | 3.0 | 3.0 | 0.00 | 0.14 | 0.07 | 100 | 1014.2 |
| 20260903213047 | 84 | 94 | 1.0 | 3.0 | 0.00 | 0.14 | 0.07 | 100 | 1014.1 |
| 20260903212748 | 84 | 94 | 1.0 | 3.0 | 0.00 | 0.14 | 0.07 | 100 | 1014.1 |
| 20260903212626 | 84 | 99 | 3.0 | 3.0 | 0.00 | 0.14 | 0.07 | 100 | 1014.1 |
| 20260903212248 | 84 | 99 | 3.0 | 3.0 | 0.00 | 0.14 | 0.07 | 100 | 1014.1 |
| 20260903211748 | 84 | 78 | 0.0 | 0.0 | 0.00 | 0.14 | 0.07 | 100 | 1014.0 |
| 20260903211248 | 84 | 78 | 0.0 | 0.0 | 0.00 | 0.14 | 0.07 | 100 | 1014.0 |
| 20260903211116 | 84 | 78 | 0.0 | 0.0 | 0.00 | 0.14 | 0.07 | 100 | 1013.9 |
| 20260903210748 | 84 | 78 | 0.0 | 0.0 | 0.00 | 0.14 | 0.07 | 100 | 1013.9 |
| 20260903210248 | 84 | 78 | 0.0 | 0.0 | 0.00 | 0.14 | 0.07 | 100 | 1014.1 |
| 20260903210119 | 84 | 78 | 0.0 | 0.0 | 0.00 | 0.14 | 0.07 | 100 | 1014.1 |
| 20260903205748 | 84 | 78 | 0.0 | 0.0 | 0.00 | 0.14 | 0.07 | 100 | 1014.1 |
| 20260903205716 | 84 | 78 | 0.0 | 2.0 | 0.00 | 0.14 | 0.07 | 100 | 1014.1 |
| 20260903205248 | 84 | 78 | 0.0 | 2.0 | 0.00 | 0.14 | 0.07 | 100 | 1014.1 |
| 20260903205101 | 84 | 67 | 1.0 | 4.0 | 0.00 | 0.14 | 0.07 | 100 | 1014.3 |
| 20260903204748 | 84 | 67 | 1.0 | 4.0 | 0.00 | 0.14 | 0.07 | 100 | 1014.3 |
| 20260903204248 | 84 | 87 | 0.0 | 2.0 | 0.00 | 0.14 | 0.07 | 100 | 1014.3 |
| 20260903203950 | 85 | 74 | 2.0 | 2.0 | 0.01 | 0.14 | 0.07 | 100 | 1014.5 |
| 20260903203748 | 85 | 74 | 2.0 | 2.0 | 0.01 | 0.14 | 0.07 | 100 | 1014.5 |
| 20260903203248 | 85 | 66 | 0.0 | 1.0 | 0.01 | 0.14 | 0.07 | 100 | 1014.5 |
| 20260903203035 | 85 | 150 | 1.0 | 2.0 | 0.01 | 0.14 | 0.07 | 100 | 1014.5 |
| 20260903202748 | 85 | 150 | 1.0 | 2.0 | 0.01 | 0.14 | 0.07 | 100 | 1014.5 |
| 20260903202657 | 85 | 139 | 0.0 | 3.0 | 0.01 | 0.14 | 0.07 | 100 | 1014.5 |
| 20260903202248 | 85 | 139 | 0.0 | 3.0 | 0.01 | 0.14 | 0.07 | 100 | 1014.5 |
| 20260903202119 | 86 | 225 | 3.0 | 3.0 | 0.01 | 0.14 | 0.07 | 100 | 1014.5 |
| 20260903201748 | 86 | 225 | 3.0 | 3.0 | 0.01 | 0.14 | 0.07 | 100 | 1014.5 |
| 20260903201536 | 86 | 203 | 0.0 | 1.0 | 0.01 | 0.14 | 0.07 | 100 | 1014.6 |
| 20260903201248 | 86 | 203 | 0.0 | 1.0 | 0.01 | 0.14 | 0.07 | 100 | 1014.6 |
| 20260903200748 | 86 | 219 | 0.0 | 3.0 | 0.01 | 0.14 | 0.07 | 100 | 1014.7 |
| 20260903200249 | 86 | 310 | 0.0 | 0.0 | 0.01 | 0.14 | 0.07 | 100 | 1014.7 |
| 20260903195749 | 86 | 310 | 0.0 | 0.0 | 0.01 | 0.14 | 0.07 | 100 | 1014.7 |
| 20260903195248 | 85 | 310 | 0.0 | 3.0 | 0.01 | 0.14 | 0.07 | 100 | 1014.8 |
| 20260903194749 | 85 | 271 | 1.0 | 3.0 | 0.01 | 0.14 | 0.07 | 100 | 1014.9 |
| 20260903194608 | 85 | 326 | 0.0 | 3.0 | 0.02 | 0.14 | 0.07 | 100 | 1014.9 |
| 20260903194249 | 85 | 326 | 0.0 | 3.0 | 0.02 | 0.14 | 0.07 | 100 | 1014.9 |
| 20260903193749 | 85 | 293 | 1.0 | 3.0 | 0.04 | 0.13 | 0.06 | 100 | 1015.0 |
| 20260903193249 | 85 | 295 | 0.0 | 0.0 | 0.04 | 0.13 | 0.06 | 100 | 1015.0 |
| 20260903193128 | 86 | 295 | 0.0 | 3.0 | 0.05 | 0.13 | 0.06 | 100 | 1015.0 |
| 20260903192749 | 86 | 295 | 0.0 | 3.0 | 0.05 | 0.13 | 0.06 | 100 | 1015.0 |
| 20260903192619 | 86 | 271 | 0.0 | 0.0 | 0.05 | 0.13 | 0.06 | 100 | 1015.0 |
| 20260903192249 | 86 | 271 | 0.0 | 0.0 | 0.05 | 0.13 | 0.06 | 100 | 1015.0 |
| 20260903192138 | 86 | 271 | 0.0 | 2.0 | 0.05 | 0.13 | 0.06 | 100 | 1015.1 |
| 20260903191749 | 86 | 271 | 0.0 | 2.0 | 0.05 | 0.13 | 0.06 | 100 | 1015.1 |
| 20260903191604 | 86 | 261 | 0.0 | 3.0 | 0.05 | 0.13 | 0.06 | 100 | 1015.2 |
| 20260903191249 | 86 | 261 | 0.0 | 3.0 | 0.05 | 0.13 | 0.06 | 100 | 1015.2 |
| 20260903191123 | 85 | 222 | 0.0 | 0.0 | 0.05 | 0.13 | 0.06 | 100 | 1015.2 |
| 20260903190749 | 85 | 222 | 0.0 | 0.0 | 0.05 | 0.13 | 0.06 | 100 | 1015.2 |
| 20260903190447 | 85 | 222 | 0.0 | 2.0 | 0.05 | 0.13 | 0.06 | 100 | 1015.3 |
| 20260903190249 | 85 | 222 | 0.0 | 2.0 | 0.05 | 0.13 | 0.06 | 100 | 1015.3 |
| 20260903190124 | 84 | 272 | 1.0 | 4.0 | 0.05 | 0.13 | 0.06 | 100 | 1015.5 |
| 20260903185749 | 84 | 272 | 1.0 | 4.0 | 0.05 | 0.13 | 0.06 | 100 | 1015.5 |
| 20260903185612 | 84 | 212 | 1.0 | 4.0 | 0.05 | 0.13 | 0.06 | 100 | 1015.7 |
| 20260903185249 | 84 | 212 | 1.0 | 4.0 | 0.05 | 0.13 | 0.06 | 100 | 1015.7 |
| 20260903185014 | 83 | 189 | 2.0 | 8.0 | 0.05 | 0.13 | 0.06 | 100 | 1015.7 |
| 20260903184749 | 83 | 189 | 2.0 | 8.0 | 0.05 | 0.13 | 0.06 | 100 | 1015.7 |
| 20260903184552 | 84 | 212 | 2.0 | 10.0 | 0.04 | 0.12 | 0.05 | 100 | 1015.6 |
| 20260903184513 | 84 | 212 | 2.0 | 10.0 | 0.04 | 0.12 | 0.05 | 100 | 1015.6 |
| 20260903184249 | 84 | 212 | 2.0 | 10.0 | 0.04 | 0.12 | 0.05 | 100 | 1015.6 |
| 20260903183958 | 84 | 175 | 5.0 | 13.0 | 0.01 | 0.09 | 0.02 | 100 | 1015.7 |
| 20260903183749 | 84 | 175 | 5.0 | 13.0 | 0.01 | 0.09 | 0.02 | 100 | 1015.7 |
| 20260903183249 | 83 | 154 | 6.0 | 14.0 | 0.01 | 0.09 | 0.02 | 100 | 1016.0 |
| 20260903182749 | 84 | 210 | 8.0 | 14.0 | 0.00 | 0.08 | 0.01 | 100 | 1015.9 |
| 20260903182533 | 84 | 184 | 5.0 | 19.0 | 0.00 | 0.08 | 0.01 | 100 | 1015.8 |
| 20260903182249 | 84 | 184 | 5.0 | 19.0 | 0.00 | 0.08 | 0.01 | 100 | 1015.8 |
| 20260903181749 | 88 | 185 | 2.0 | 20.0 | 0.00 | 0.08 | 0.01 | 100 | 1015.6 |
| 20260903181533 | 90 | 233 | 9.0 | 11.0 | 0.00 | 0.08 | 0.01 | 100 | 1015.6 |
| 20260903181249 | 90 | 233 | 9.0 | 11.0 | 0.00 | 0.08 | 0.01 | 100 | 1015.6 |
| 20260903180749 | 92 | 243 | 6.0 | 9.0 | 0.00 | 0.08 | 0.01 | 100 | 1015.4 |
| 20260903180534 | 93 | 246 | 6.0 | 8.0 | 0.00 | 0.08 | 0.01 | 100 | 1015.5 |
| 20260903180503 | 93 | 246 | 6.0 | 8.0 | 0.00 | 0.08 | 0.01 | 100 | 1015.5 |
| 20260903180249 | 93 | 246 | 6.0 | 8.0 | 0.00 | 0.08 | 0.01 | 100 | 1015.5 |
| 20260903180042 | 94 | 240 | 5.0 | 8.0 | 0.00 | 0.08 | 0.01 | 100 | 1015.6 |
| 20260903175749 | 94 | 240 | 5.0 | 8.0 | 0.00 | 0.08 | 0.01 | 100 | 1015.6 |
| 20260903175249 | 96 | 157 | 1.0 | 4.0 | 0.00 | 0.08 | 0.01 | 100 | 1015.5 |
| 20260903174749 | 101 | 172 | 2.0 | 3.0 | 0.00 | 0.08 | 0.01 | 100 | 1015.5 |
| 20260903174521 | 111 | 181 | 3.0 | 5.0 | 0.00 | 0.08 | 0.01 | 100 | 1015.5 |
| 20260903174249 | 111 | 181 | 3.0 | 5.0 | 0.00 | 0.08 | 0.01 | 100 | 1015.5 |
| 20260903173930 | 113 | 111 | 2.0 | 3.0 | 0.00 | 0.08 | 0.01 | 100 | 1015.5 |
| 20260903173749 | 113 | 111 | 2.0 | 3.0 | 0.00 | 0.08 | 0.01 | 100 | 1015.5 |
| 20260903173535 | 98 | 90 | 0.0 | 6.0 | 0.00 | 0.08 | 0.01 | 100 | 1015.6 |
| 20260903173249 | 98 | 90 | 0.0 | 6.0 | 0.00 | 0.08 | 0.01 | 100 | 1015.6 |
| 20260903173055 | 104 | 154 | 3.0 | 7.0 | 0.00 | 0.08 | 0.01 | 100 | 1015.6 |
| 20260903172749 | 104 | 154 | 3.0 | 7.0 | 0.00 | 0.08 | 0.01 | 100 | 1015.6 |
| 20260903172616 | 118 | 143 | 3.0 | 6.0 | 0.00 | 0.08 | 0.01 | 100 | 1015.6 |
| 20260903172249 | 118 | 143 | 3.0 | 6.0 | 0.00 | 0.08 | 0.01 | 100 | 1015.6 |
| 20260903171749 | 107 | 99 | 0.0 | 6.0 | 0.00 | 0.08 | 0.01 | 100 | 1015.6 |
| 20260903171456 | 117 | 92 | 2.0 | 5.0 | 0.00 | 0.08 | 0.01 | 100 | 1015.6 |
| 20260903171249 | 117 | 92 | 2.0 | 5.0 | 0.00 | 0.08 | 0.01 | 100 | 1015.6 |
| 20260903170749 | 110 | 74 | 2.0 | 6.0 | 0.00 | 0.08 | 0.01 | 100 | 1015.7 |
| 20260903170554 | 108 | 222 | 5.0 | 8.0 | 0.00 | 0.08 | 0.01 | 100 | 1015.7 |
| 20260903170249 | 108 | 222 | 5.0 | 8.0 | 0.00 | 0.08 | 0.01 | 100 | 1015.7 |
| 20260903170036 | 120 | 260 | 3.0 | 8.0 | 0.00 | 0.08 | 0.01 | 100 | 1015.9 |
| 20260903165749 | 120 | 260 | 3.0 | 8.0 | 0.00 | 0.08 | 0.01 | 100 | 1015.9 |
| 20260903165249 | 121 | 192 | 7.0 | 7.0 | 0.00 | 0.08 | 0.01 | 100 | 1015.9 |
| 20260903165010 | 122 | 255 | 3.0 | 6.0 | 0.00 | 0.08 | 0.01 | 100 | 1016.0 |
| 20260903164749 | 122 | 255 | 3.0 | 6.0 | 0.00 | 0.08 | 0.01 | 100 | 1016.0 |
| 20260903164556 | 117 | 247 | 2.0 | 8.0 | 0.00 | 0.08 | 0.01 | 100 | 1016.1 |
| 20260903164249 | 117 | 247 | 2.0 | 8.0 | 0.00 | 0.08 | 0.01 | 100 | 1016.1 |
| 20260903164114 | 119 | 187 | 7.0 | 7.0 | 0.00 | 0.08 | 0.01 | 100 | 1016.2 |
| 20260903164019 | 119 | 187 | 7.0 | 7.0 | 0.00 | 0.08 | 0.01 | 100 | 1016.2 |
| 20260903163749 | 119 | 187 | 7.0 | 7.0 | 0.00 | 0.08 | 0.01 | 100 | 1016.2 |
| 20260903163522 | 116 | 199 | 1.0 | 7.0 | 0.00 | 0.08 | 0.01 | 100 | 1016.3 |
| 20260903163249 | 116 | 199 | 1.0 | 7.0 | 0.00 | 0.08 | 0.01 | 100 | 1016.3 |
| 20260903163039 | 115 | 233 | 1.0 | 7.0 | 0.00 | 0.08 | 0.01 | 100 | 1016.4 |
| 20260903162749 | 115 | 233 | 1.0 | 7.0 | 0.00 | 0.08 | 0.01 | 100 | 1016.4 |
| 20260903162507 | 114 | 239 | 5.0 | 9.0 | 0.00 | 0.08 | 0.01 | 100 | 1016.3 |
| 20260903162249 | 114 | 239 | 5.0 | 9.0 | 0.00 | 0.08 | 0.01 | 100 | 1016.3 |
| 20260903162037 | 115 | 130 | 2.0 | 4.0 | 0.00 | 0.08 | 0.01 | 100 | 1016.3 |
| 20260903161750 | 115 | 130 | 2.0 | 4.0 | 0.00 | 0.08 | 0.01 | 100 | 1016.3 |
| 20260903161523 | 114 | 233 | 3.0 | 7.0 | 0.00 | 0.08 | 0.01 | 100 | 1016.4 |
| 20260903161249 | 114 | 233 | 3.0 | 7.0 | 0.00 | 0.08 | 0.01 | 100 | 1016.4 |
| 20260903160749 | 110 | 223 | 6.0 | 7.0 | 0.00 | 0.08 | 0.01 | 100 | 1016.4 |
| 20260903160250 | 109 | 206 | 0.0 | 5.0 | 0.00 | 0.08 | 0.01 | 100 | 1016.4 |
| 20260903160120 | 105 | 133 | 2.0 | 6.0 | 0.00 | 0.08 | 0.01 | 100 | 1016.5 |
| 20260903155750 | 105 | 133 | 2.0 | 6.0 | 0.00 | 0.08 | 0.01 | 100 | 1016.5 |
| 20260903155250 | 108 | 168 | 1.0 | 5.0 | 0.00 | 0.08 | 0.01 | 100 | 1016.5 |
| 20260903155108 | 104 | 127 | 3.0 | 6.0 | 0.00 | 0.08 | 0.01 | 100 | 1016.6 |
| 20260903154750 | 104 | 127 | 3.0 | 6.0 | 0.00 | 0.08 | 0.01 | 100 | 1016.6 |
| 20260903154250 | 102 | 77 | 2.0 | 8.0 | 0.00 | 0.08 | 0.01 | 100 | 1016.6 |
| 20260903154122 | 97 | 87 | 5.0 | 7.0 | 0.00 | 0.08 | 0.01 | 100 | 1016.7 |
| 20260903153750 | 97 | 87 | 5.0 | 7.0 | 0.00 | 0.08 | 0.01 | 100 | 1016.7 |
| 20260903153250 | 99 | 108 | 6.0 | 8.0 | 0.00 | 0.08 | 0.01 | 100 | 1016.7 |
| 20260903153034 | 92 | 127 | 2.0 | 7.0 | 0.00 | 0.08 | 0.01 | 100 | 1016.8 |
| 20260903152750 | 92 | 127 | 2.0 | 7.0 | 0.00 | 0.08 | 0.01 | 100 | 1016.8 |
| 20260903152250 | 97 | 118 | 4.0 | 7.0 | 0.00 | 0.08 | 0.01 | 100 | 1016.8 |
| 20260903151750 | 96 | 108 | 6.0 | 8.0 | 0.00 | 0.08 | 0.01 | 100 | 1016.8 |
| 20260903151516 | 94 | 153 | 2.0 | 7.0 | 0.00 | 0.08 | 0.01 | 100 | 1016.8 |
| 20260903151250 | 94 | 153 | 2.0 | 7.0 | 0.00 | 0.08 | 0.01 | 100 | 1016.8 |
| 20260903151034 | 93 | 163 | 7.0 | 7.0 | 0.00 | 0.08 | 0.01 | 100 | 1016.8 |
| 20260903150750 | 93 | 163 | 7.0 | 7.0 | 0.00 | 0.08 | 0.01 | 100 | 1016.8 |
| 20260903150250 | 91 | 84 | 3.0 | 6.0 | 0.00 | 0.18 | 0.01 | 100 | 1016.8 |
| 20260903145750 | 91 | 104 | 5.0 | 7.0 | 0.00 | 0.18 | 0.01 | 100 | 1016.7 |
| 20260903145636 | 90 | 104 | 6.0 | 7.0 | 0.00 | 0.18 | 0.01 | 100 | 1016.7 |
| 20260903145250 | 90 | 104 | 6.0 | 7.0 | 0.00 | 0.18 | 0.01 | 100 | 1016.7 |
| 20260903144750 | 90 | 130 | 2.0 | 4.0 | 0.00 | 0.18 | 0.01 | 100 | 1016.6 |
| 20260903144652 | 88 | 158 | 4.0 | 8.0 | 0.00 | 0.18 | 0.01 | 100 | 1016.5 |
| 20260903144250 | 88 | 158 | 4.0 | 8.0 | 0.00 | 0.18 | 0.01 | 100 | 1016.5 |
| 20260903143750 | 88 | 150 | 3.0 | 7.0 | 0.00 | 0.18 | 0.01 | 100 | 1016.4 |
| 20260903143250 | 87 | 192 | 4.0 | 6.0 | 0.00 | 0.18 | 0.01 | 100 | 1016.3 |
| 20260903143104 | 85 | 171 | 1.0 | 6.0 | 0.00 | 0.18 | 0.01 | 100 | 1016.4 |
| 20260903142750 | 85 | 171 | 1.0 | 6.0 | 0.00 | 0.18 | 0.01 | 100 | 1016.4 |
| 20260903142250 | 85 | 136 | 2.0 | 5.0 | 0.00 | 0.18 | 0.01 | 100 | 1016.5 |
| 20260903141750 | 88 | 143 | 1.0 | 5.0 | 0.00 | 0.18 | 0.01 | 100 | 1016.5 |
| 20260903141250 | 89 | 153 | 3.0 | 4.0 | 0.00 | 0.18 | 0.01 | 100 | 1016.5 |
| 20260903141131 | 86 | 139 | 2.0 | 7.0 | 0.00 | 0.18 | 0.01 | 100 | 1016.5 |
| 20260903140750 | 86 | 139 | 2.0 | 7.0 | 0.00 | 0.18 | 0.01 | 100 | 1016.5 |
| 20260903140609 | 90 | 157 | 4.0 | 8.0 | 0.00 | 0.18 | 0.01 | 100 | 1016.5 |
| 20260903140250 | 90 | 157 | 4.0 | 8.0 | 0.00 | 0.18 | 0.01 | 100 | 1016.5 |
| 20260903140106 | 87 | 98 | 1.0 | 6.0 | 0.00 | 0.18 | 0.01 | 100 | 1016.4 |
| 20260903135750 | 87 | 98 | 1.0 | 6.0 | 0.00 | 0.18 | 0.01 | 100 | 1016.4 |
| 20260903135514 | 87 | 164 | 3.0 | 6.0 | 0.00 | 0.18 | 0.01 | 100 | 1016.4 |
| 20260903135250 | 87 | 164 | 3.0 | 6.0 | 0.00 | 0.18 | 0.01 | 100 | 1016.4 |
| 20260903135009 | 88 | 187 | 4.0 | 7.0 | 0.00 | 0.18 | 0.01 | 100 | 1016.4 |
| 20260903134750 | 88 | 187 | 4.0 | 7.0 | 0.00 | 0.18 | 0.01 | 100 | 1016.4 |
| 20260903134250 | 87 | 172 | 5.0 | 6.0 | 0.00 | 0.18 | 0.01 | 100 | 1016.4 |
| 20260903134124 | 83 | 182 | 5.0 | 6.0 | 0.00 | 0.18 | 0.01 | 100 | 1016.5 |
| 20260903133750 | 83 | 182 | 5.0 | 6.0 | 0.00 | 0.18 | 0.01 | 100 | 1016.5 |
| 20260903133550 | 86 | 102 | 2.0 | 6.0 | 0.00 | 0.18 | 0.01 | 100 | 1016.5 |
| 20260903133250 | 86 | 102 | 2.0 | 6.0 | 0.00 | 0.18 | 0.01 | 100 | 1016.5 |
| 20260903133051 | 83 | 165 | 5.0 | 6.0 | 0.00 | 0.18 | 0.01 | 100 | 1016.5 |
| 20260903132828 | 83 | 165 | 5.0 | 6.0 | 0.00 | 0.18 | 0.01 | 100 | 1016.5 |
| 20260903132750 | 83 | 165 | 5.0 | 6.0 | 0.00 | 0.18 | 0.01 | 100 | 1016.5 |
| 20260903132617 | 84 | 164 | 1.0 | 5.0 | 0.00 | 0.18 | 0.01 | 100 | 1016.5 |
| 20260903132250 | 84 | 164 | 1.0 | 5.0 | 0.00 | 0.18 | 0.01 | 100 | 1016.5 |
| 20260903132121 | 83 | 143 | 2.0 | 5.0 | 0.00 | 0.18 | 0.01 | 100 | 1016.4 |
| 20260903131750 | 83 | 143 | 2.0 | 5.0 | 0.00 | 0.18 | 0.01 | 100 | 1016.4 |
| 20260903131528 | 84 | 168 | 5.0 | 5.0 | 0.00 | 0.18 | 0.01 | 100 | 1016.4 |
| 20260903131250 | 84 | 168 | 5.0 | 5.0 | 0.00 | 0.18 | 0.01 | 100 | 1016.4 |
| 20260903130750 | 84 | 102 | 2.0 | 6.0 | 0.01 | 0.18 | 0.01 | 100 | 1016.3 |
| 20260903130527 | 84 | 143 | 3.0 | 6.0 | 0.01 | 0.18 | 0.01 | 100 | 1016.3 |
| 20260903130250 | 84 | 143 | 3.0 | 6.0 | 0.01 | 0.18 | 0.01 | 100 | 1016.3 |
| 20260903125750 | 83 | 95 | 6.0 | 6.0 | 0.01 | 0.18 | 0.01 | 100 | 1016.3 |
| 20260903125250 | 83 | 91 | 3.0 | 5.0 | 0.01 | 0.18 | 0.01 | 100 | 1016.2 |
| 20260903125049 | 82 | 154 | 3.0 | 6.0 | 0.01 | 0.18 | 0.01 | 100 | 1016.1 |
| 20260903124750 | 82 | 154 | 3.0 | 6.0 | 0.01 | 0.18 | 0.01 | 100 | 1016.1 |
| 20260903124535 | 80 | 97 | 4.0 | 7.0 | 0.01 | 0.18 | 0.01 | 100 | 1016.2 |
| 20260903124250 | 80 | 97 | 4.0 | 7.0 | 0.01 | 0.18 | 0.01 | 100 | 1016.2 |
| 20260903124028 | 79 | 97 | 1.0 | 5.0 | 0.01 | 0.18 | 0.01 | 100 | 1016.1 |
| 20260903123750 | 79 | 97 | 1.0 | 5.0 | 0.01 | 0.18 | 0.01 | 100 | 1016.1 |
| 20260903123250 | 79 | 80 | 1.0 | 4.0 | 0.01 | 0.18 | 0.01 | 100 | 1016.1 |
| 20260903123004 | 78 | 144 | 3.0 | 6.0 | 0.01 | 0.18 | 0.01 | 100 | 1016.1 |
| 20260903122750 | 78 | 144 | 3.0 | 6.0 | 0.01 | 0.18 | 0.01 | 100 | 1016.1 |
| 20260903122616 | 78 | 133 | 1.0 | 3.0 | 0.01 | 0.18 | 0.01 | 100 | 1016.1 |
| 20260903122250 | 78 | 133 | 1.0 | 3.0 | 0.01 | 0.18 | 0.01 | 100 | 1016.1 |
| 20260903121750 | 78 | 56 | 0.0 | 0.0 | 0.01 | 0.18 | 0.01 | 100 | 1015.9 |
| 20260903121250 | 78 | 56 | 0.0 | 0.0 | 0.01 | 0.18 | 0.01 | 100 | 1015.9 |
| 20260903120751 | 78 | 56 | 0.0 | 0.0 | 0.00 | 0.17 | 0.00 | 100 | 1015.9 |
| 20260903120506 | 77 | 56 | 0.0 | 0.0 | 0.00 | 0.17 | 0.00 | 100 | 1015.8 |
| 20260903120251 | 77 | 56 | 0.0 | 0.0 | 0.00 | 0.17 | 0.00 | 100 | 1015.8 |
| 20260903115751 | 77 | 56 | 0.0 | 0.0 | 0.00 | 0.17 | 0.00 | 100 | 1015.6 |
| 20260903115251 | 77 | 56 | 0.0 | 0.0 | 0.00 | 0.17 | 0.00 | 100 | 1015.6 |
| 20260903115033 | 77 | 56 | 0.0 | 0.0 | 0.00 | 0.17 | 0.00 | 100 | 1015.5 |
| 20260903114751 | 77 | 56 | 0.0 | 0.0 | 0.00 | 0.17 | 0.00 | 100 | 1015.5 |
| 20260903114543 | 77 | 56 | 0.0 | 0.0 | 0.00 | 0.17 | 0.00 | 100 | 1015.3 |
| 20260903114251 | 77 | 56 | 0.0 | 0.0 | 0.00 | 0.17 | 0.00 | 100 | 1015.3 |
| 20260903113751 | 77 | 56 | 0.0 | 0.0 | 0.00 | 0.17 | 0.00 | 100 | 1015.3 |
| 20260903113251 | 76 | 56 | 0.0 | 0.0 | 0.00 | 0.17 | 0.00 | 100 | 1015.2 |
| 20260903113012 | 76 | 56 | 0.0 | 0.0 | 0.00 | 0.17 | 0.00 | 100 | 1015.0 |
| 20260903112751 | 76 | 56 | 0.0 | 0.0 | 0.00 | 0.17 | 0.00 | 100 | 1015.0 |
| 20260903112613 | 76 | 56 | 0.0 | 0.0 | 0.00 | 0.17 | 0.00 | 100 | 1015.2 |
| 20260903112251 | 76 | 56 | 0.0 | 0.0 | 0.00 | 0.17 | 0.00 | 100 | 1015.2 |
| 20260903112123 | 76 | 56 | 0.0 | 0.0 | 0.00 | 0.17 | 0.00 | 100 | 1015.2 |
| 20260903111751 | 76 | 56 | 0.0 | 0.0 | 0.00 | 0.17 | 0.00 | 100 | 1015.2 |
| 20260903111539 | 76 | 56 | 0.0 | 0.0 | 0.00 | 0.17 | 0.00 | 100 | 1015.1 |
| 20260903111251 | 76 | 56 | 0.0 | 0.0 | 0.00 | 0.17 | 0.00 | 100 | 1015.1 |
| 20260903110751 | 76 | 56 | 0.0 | 0.0 | 0.00 | 0.17 | 0.00 | 100 | 1015.1 |
| 20260903110251 | 76 | 56 | 0.0 | 0.0 | 0.00 | 0.17 | 0.00 | 100 | 1015.2 |
| 20260903110010 | 76 | 56 | 0.0 | 0.0 | 0.00 | 0.17 | 0.00 | 100 | 1015.2 |
| 20260903105751 | 76 | 56 | 0.0 | 0.0 | 0.00 | 0.17 | 0.00 | 100 | 1015.2 |
| 20260903105251 | 76 | 56 | 0.0 | 0.0 | 0.00 | 0.17 | 0.00 | 100 | 1015.2 |
| 20260903104751 | 76 | 56 | 0.0 | 0.0 | 0.00 | 0.17 | 0.00 | 100 | 1015.1 |
| 20260903104552 | 77 | 56 | 0.0 | 0.0 | 0.00 | 0.17 | 0.00 | 100 | 1015.0 |
| 20260903104251 | 77 | 56 | 0.0 | 0.0 | 0.00 | 0.17 | 0.00 | 100 | 1015.0 |
| 20260903104139 | 77 | 56 | 0.0 | 0.0 | 0.00 | 0.17 | 0.00 | 100 | 1014.9 |
| 20260903103751 | 77 | 56 | 0.0 | 0.0 | 0.00 | 0.17 | 0.00 | 100 | 1014.9 |
| 20260903103251 | 77 | 56 | 0.0 | 0.0 | 0.00 | 0.17 | 0.00 | 100 | 1014.9 |
| 20260903103036 | 77 | 56 | 0.0 | 0.0 | 0.00 | 0.17 | 0.00 | 100 | 1015.0 |
| 20260903102751 | 77 | 56 | 0.0 | 0.0 | 0.00 | 0.17 | 0.00 | 100 | 1015.0 |
| 20260903102251 | 77 | 56 | 0.0 | 0.0 | 0.00 | 0.17 | 0.00 | 100 | 1015.0 |
| 20260903101751 | 77 | 56 | 0.0 | 0.0 | 0.00 | 0.17 | 0.00 | 100 | 1014.9 |
| 20260903101534 | 77 | 56 | 0.0 | 0.0 | 0.00 | 0.17 | 0.00 | 100 | 1014.9 |
| 20260903101251 | 77 | 56 | 0.0 | 0.0 | 0.00 | 0.17 | 0.00 | 100 | 1014.9 |
| 20260903100751 | 77 | 56 | 0.0 | 0.0 | 0.00 | 0.17 | 0.00 | 100 | 1014.9 |
| 20260903100251 | 77 | 56 | 0.0 | 0.0 | 0.00 | 0.18 | 0.00 | 100 | 1014.7 |
| 20260903095751 | 77 | 56 | 0.0 | 0.0 | 0.00 | 0.18 | 0.00 | 100 | 1014.7 |
| 20260903095451 | 78 | 68 | 0.0 | 0.0 | 0.00 | 0.18 | 0.00 | 100 | 1014.9 |
| 20260903095251 | 77 | 56 | 0.0 | 0.0 | 0.00 | 0.18 | 0.00 | 100 | 1014.7 |
| 20260903094751 | 77 | 56 | 0.0 | 0.0 | 0.00 | 0.18 | 0.00 | 100 | 1014.5 |
| 20260903094251 | 77 | 56 | 0.0 | 0.0 | 0.00 | 0.18 | 0.00 | 100 | 1014.4 |
| 20260903093751 | 77 | 56 | 0.0 | 0.0 | 0.00 | 0.18 | 0.00 | 100 | 1014.2 |
| 20260903093251 | 77 | 56 | 0.0 | 0.0 | 0.00 | 0.18 | 0.00 | 100 | 1014.2 |
| 20260903093201 | 77 | 56 | 0.0 | 0.0 | 0.00 | 0.18 | 0.00 | 100 | 1014.1 |
| 20260903093040 | 77 | 56 | 0.0 | 0.0 | 0.00 | 0.18 | 0.00 | 100 | 1014.1 |
| 20260903092751 | 77 | 56 | 0.0 | 0.0 | 0.00 | 0.18 | 0.00 | 100 | 1014.1 |
| 20260903092647 | 77 | 56 | 0.0 | 0.0 | 0.00 | 0.18 | 0.00 | 100 | 1014.1 |
| 20260903092251 | 77 | 56 | 0.0 | 0.0 | 0.00 | 0.18 | 0.00 | 100 | 1014.1 |
| 20260903091751 | 77 | 56 | 0.0 | 0.0 | 0.00 | 0.18 | 0.00 | 100 | 1014.1 |
| 20260903091251 | 77 | 56 | 0.0 | 2.0 | 0.00 | 0.18 | 0.00 | 100 | 1014.1 |
| 20260903090751 | 77 | 28 | 0.0 | 0.0 | 0.00 | 0.18 | 0.00 | 100 | 1014.1 |
| 20260903090251 | 77 | 28 | 0.0 | 0.0 | 0.00 | 0.18 | 0.00 | 100 | 1014.2 |
| 20260903085751 | 77 | 28 | 0.0 | 0.0 | 0.00 | 0.18 | 0.00 | 100 | 1014.1 |
| 20260903085538 | 77 | 28 | 0.0 | 0.0 | 0.00 | 0.18 | 0.00 | 100 | 1014.1 |
| 20260903085251 | 77 | 28 | 0.0 | 0.0 | 0.00 | 0.18 | 0.00 | 100 | 1014.1 |
| 20260903085105 | 77 | 28 | 0.0 | 0.0 | 0.00 | 0.18 | 0.00 | 100 | 1014.1 |
| 20260903084751 | 77 | 28 | 0.0 | 0.0 | 0.00 | 0.18 | 0.00 | 100 | 1014.1 |
| 20260903084251 | 77 | 28 | 0.0 | 0.0 | 0.00 | 0.18 | 0.00 | 100 | 1014.0 |
| 20260903083954 | 77 | 28 | 0.0 | 0.0 | 0.00 | 0.18 | 0.00 | 100 | 1014.0 |
| 20260903083751 | 77 | 28 | 0.0 | 0.0 | 0.00 | 0.18 | 0.00 | 100 | 1014.0 |
| 20260903083251 | 77 | 28 | 0.0 | 0.0 | 0.00 | 0.18 | 0.00 | 100 | 1013.9 |
| 20260903083037 | 77 | 28 | 0.0 | 0.0 | 0.00 | 0.18 | 0.00 | 100 | 1014.0 |
| 20260903082751 | 77 | 28 | 0.0 | 0.0 | 0.00 | 0.18 | 0.00 | 100 | 1014.0 |
| 20260903082536 | 77 | 28 | 0.0 | 0.0 | 0.00 | 0.18 | 0.00 | 100 | 1014.0 |
| 20260903082251 | 77 | 28 | 0.0 | 0.0 | 0.00 | 0.18 | 0.00 | 100 | 1014.0 |
| 20260903081751 | 77 | 28 | 0.0 | 0.0 | 0.00 | 0.18 | 0.00 | 100 | 1014.0 |
| 20260903081551 | 78 | 28 | 0.0 | 0.0 | 0.00 | 0.18 | 0.00 | 100 | 1014.0 |
| 20260903081251 | 78 | 28 | 0.0 | 0.0 | 0.00 | 0.18 | 0.00 | 100 | 1014.0 |
| 20260903080752 | 78 | 28 | 0.0 | 0.0 | 0.00 | 0.18 | 0.00 | 100 | 1014.1 |
| 20260903080252 | 78 | 28 | 0.0 | 0.0 | 0.00 | 0.18 | 0.00 | 100 | 1014.1 |
| 20260903080037 | 78 | 28 | 0.0 | 0.0 | 0.00 | 0.18 | 0.00 | 100 | 1014.2 |
| 20260903075752 | 78 | 28 | 0.0 | 0.0 | 0.00 | 0.18 | 0.00 | 100 | 1014.2 |
| 20260903075252 | 78 | 28 | 0.0 | 0.0 | 0.00 | 0.18 | 0.00 | 100 | 1014.3 |
| 20260903074752 | 78 | 28 | 0.0 | 0.0 | 0.00 | 0.18 | 0.00 | 100 | 1014.3 |
| 20260903074252 | 78 | 28 | 0.0 | 0.0 | 0.00 | 0.18 | 0.00 | 100 | 1014.4 |
| 20260903073952 | 78 | 28 | 0.0 | 0.0 | 0.00 | 0.18 | 0.00 | 100 | 1014.4 |
| 20260903073752 | 78 | 28 | 0.0 | 0.0 | 0.00 | 0.18 | 0.00 | 100 | 1014.4 |
| 20260903073252 | 78 | 28 | 0.0 | 0.0 | 0.00 | 0.18 | 0.00 | 100 | 1014.4 |
| 20260903073049 | 78 | 28 | 0.0 | 3.0 | 0.00 | 0.18 | 0.00 | 100 | 1014.5 |
| 20260903072752 | 78 | 28 | 0.0 | 3.0 | 0.00 | 0.18 | 0.00 | 100 | 1014.5 |
| 20260903072252 | 78 | 351 | 1.0 | 2.0 | 0.00 | 0.18 | 0.00 | 100 | 1014.5 |
| 20260903072109 | 78 | 40 | 0.0 | 0.0 | 0.00 | 0.18 | 0.00 | 100 | 1014.5 |
| 20260903071752 | 78 | 40 | 0.0 | 0.0 | 0.00 | 0.18 | 0.00 | 100 | 1014.5 |
| 20260903071252 | 78 | 40 | 0.0 | 2.0 | 0.00 | 0.18 | 0.00 | 100 | 1014.4 |
| 20260903071012 | 78 | 53 | 1.0 | 4.0 | 0.00 | 0.18 | 0.00 | 100 | 1014.3 |
| 20260903070752 | 78 | 53 | 1.0 | 4.0 | 0.00 | 0.18 | 0.00 | 100 | 1014.3 |
| 20260903070252 | 78 | 59 | 0.0 | 3.0 | 0.00 | 0.18 | 0.00 | 100 | 1014.5 |
| 20260903070037 | 78 | 56 | 1.0 | 2.0 | 0.00 | 0.18 | 0.00 | 100 | 1014.7 |
| 20260903065752 | 78 | 56 | 1.0 | 2.0 | 0.00 | 0.18 | 0.00 | 100 | 1014.7 |
| 20260903065616 | 78 | 68 | 0.0 | 0.0 | 0.00 | 0.18 | 0.00 | 100 | 1014.9 |
| 20260903065252 | 78 | 68 | 0.0 | 0.0 | 0.00 | 0.18 | 0.00 | 100 | 1014.9 |
| 20260903064752 | 78 | 68 | 0.0 | 0.0 | 0.00 | 0.18 | 0.00 | 100 | 1014.9 |
| 20260903064252 | 78 | 68 | 0.0 | 0.0 | 0.00 | 0.18 | 0.00 | 100 | 1015.0 |
| 20260903063956 | 78 | 68 | 0.0 | 0.0 | 0.00 | 0.18 | 0.00 | 100 | 1014.9 |
| 20260903063752 | 78 | 68 | 0.0 | 0.0 | 0.00 | 0.18 | 0.00 | 100 | 1014.9 |
| 20260903063458 | 78 | 68 | 0.0 | 0.0 | 0.00 | 0.18 | 0.00 | 100 | 1014.9 |
| 20260903063252 | 78 | 68 | 0.0 | 0.0 | 0.00 | 0.18 | 0.00 | 100 | 1014.9 |
| 20260903062752 | 78 | 68 | 0.0 | 0.0 | 0.00 | 0.18 | 0.00 | 100 | 1015.0 |
| 20260903062536 | 78 | 68 | 0.0 | 0.0 | 0.00 | 0.18 | 0.00 | 100 | 1015.1 |
| 20260903062252 | 78 | 68 | 0.0 | 0.0 | 0.00 | 0.18 | 0.00 | 100 | 1015.1 |
| 20260903061752 | 78 | 68 | 0.0 | 2.0 | 0.00 | 0.18 | 0.00 | 100 | 1015.1 |
| 20260903061618 | 78 | 149 | 1.0 | 2.0 | 0.00 | 0.18 | 0.00 | 100 | 1015.1 |
| 20260903061252 | 78 | 149 | 1.0 | 2.0 | 0.00 | 0.18 | 0.00 | 100 | 1015.1 |
| 20260903060752 | 78 | 108 | 0.0 | 3.0 | 0.00 | 0.18 | 0.00 | 100 | 1015.1 |
| 20260903060252 | 78 | 112 | 0.0 | 0.0 | 0.00 | 0.18 | 0.00 | 100 | 1015.1 |
| 20260903060143 | 78 | 112 | 0.0 | 0.0 | 0.00 | 0.18 | 0.00 | 100 | 1015.0 |
| 20260903060048 | 78 | 112 | 0.0 | 0.0 | 0.00 | 0.18 | 0.00 | 100 | 1015.0 |
| 20260903055752 | 78 | 112 | 0.0 | 0.0 | 0.00 | 0.18 | 0.00 | 100 | 1015.0 |
| 20260903055713 | 78 | 112 | 0.0 | 0.0 | 0.00 | 0.18 | 0.00 | 100 | 1015.0 |
| 20260903055252 | 78 | 112 | 0.0 | 0.0 | 0.00 | 0.18 | 0.00 | 100 | 1015.0 |
| 20260903054956 | 78 | 112 | 0.0 | 0.0 | 0.00 | 0.18 | 0.00 | 100 | 1015.0 |
| 20260903054752 | 78 | 112 | 0.0 | 0.0 | 0.00 | 0.18 | 0.00 | 100 | 1015.0 |
| 20260903054736 | 73 | 56 | 0.0 | 0.0 | 0.00 | 0.88 | 0.00 | 100 | 1017.0 |
| 20260903054546 | 78 | 112 | 0.0 | 2.0 | 0.00 | 0.18 | 0.00 | 100 | 1015.0 |
| 20260903054252 | 78 | 112 | 0.0 | 2.0 | 0.00 | 0.18 | 0.00 | 100 | 1015.0 |
| 20260903053752 | 78 | 120 | 1.0 | 3.0 | 0.00 | 0.18 | 0.00 | 100 | 1015.0 |
| 20260903053624 | 78 | 81 | 0.0 | 0.0 | 0.00 | 0.18 | 0.00 | 100 | 1015.0 |
| 20260903053252 | 78 | 81 | 0.0 | 0.0 | 0.00 | 0.18 | 0.00 | 100 | 1015.0 |
| 20260903053043 | 78 | 81 | 0.0 | 0.0 | 0.00 | 0.18 | 0.00 | 100 | 1015.1 |
| 20260903052752 | 78 | 81 | 0.0 | 0.0 | 0.00 | 0.18 | 0.00 | 100 | 1015.1 |
| 20260903052252 | 78 | 81 | 0.0 | 3.0 | 0.00 | 0.18 | 0.00 | 100 | 1015.1 |
| 20260903052101 | 78 | 73 | 0.0 | 3.0 | 0.00 | 0.18 | 0.00 | 100 | 1015.3 |
| 20260903051752 | 78 | 73 | 0.0 | 3.0 | 0.00 | 0.18 | 0.00 | 100 | 1015.3 |
| 20260903051252 | 78 | 70 | 1.0 | 4.0 | 0.01 | 0.18 | 0.00 | 100 | 1015.4 |
| 20260903050752 | 78 | 47 | 0.0 | 2.0 | 0.01 | 0.18 | 0.00 | 100 | 1015.4 |
| 20260903050252 | 78 | 71 | 0.0 | 4.0 | 0.01 | 0.18 | 0.00 | 100 | 1015.4 |
| 20260903045752 | 78 | 109 | 3.0 | 4.0 | 0.01 | 0.18 | 0.00 | 100 | 1015.5 |
| 20260903045713 | 78 | 63 | 0.0 | 4.0 | 0.01 | 0.18 | 0.18 | 100 | 1015.6 |
| 20260903045628 | 78 | 63 | 0.0 | 4.0 | 0.01 | 0.18 | 0.18 | 100 | 1015.6 |
| 20260903045252 | 78 | 63 | 0.0 | 4.0 | 0.01 | 0.18 | 0.18 | 100 | 1015.6 |
| 20260903044752 | 78 | 98 | 2.0 | 4.0 | 0.01 | 0.18 | 0.18 | 100 | 1015.6 |
| 20260903044252 | 78 | 61 | 0.0 | 6.0 | 0.02 | 0.18 | 0.18 | 100 | 1015.7 |
| 20260903043752 | 78 | 78 | 3.0 | 5.0 | 0.02 | 0.18 | 0.18 | 100 | 1015.7 |
| 20260903043622 | 78 | 88 | 3.0 | 4.0 | 0.03 | 0.18 | 0.18 | 100 | 1015.9 |
| 20260903043253 | 78 | 88 | 3.0 | 4.0 | 0.03 | 0.18 | 0.18 | 100 | 1015.9 |
| 20260903042752 | 78 | 92 | 2.0 | 2.0 | 0.03 | 0.18 | 0.18 | 100 | 1015.9 |
| 20260903042614 | 79 | 216 | 0.0 | 1.0 | 0.03 | 0.18 | 0.18 | 100 | 1016.0 |
| 20260903042252 | 79 | 216 | 0.0 | 1.0 | 0.03 | 0.18 | 0.18 | 100 | 1016.0 |
| 20260903042023 | 78 | 217 | 0.0 | 3.0 | 0.03 | 0.18 | 0.18 | 100 | 1016.1 |
| 20260903041752 | 78 | 217 | 0.0 | 3.0 | 0.03 | 0.18 | 0.18 | 100 | 1016.1 |
| 20260903041252 | 79 | 33 | 0.0 | 0.0 | 0.03 | 0.17 | 0.17 | 100 | 1016.2 |
| 20260903041152 | 79 | 33 | 0.0 | 2.0 | 0.03 | 0.17 | 0.17 | 100 | 1016.2 |
| 20260903040753 | 79 | 33 | 0.0 | 2.0 | 0.03 | 0.17 | 0.17 | 100 | 1016.2 |
| 20260903040607 | 78 | 15 | 1.0 | 5.0 | 0.03 | 0.17 | 0.17 | 100 | 1016.2 |